Regional Weather Roundup
Issued by NWS

Home | Current Version | Previous Version | Graphics & Text | Print | Product List | Glossary On
Versions: 1 2 3 4 5 6 7 8 9 10 11 12 13 14 15 16 17 18 19 20 21 22 23 24 25 26 27 28 29 30 31 32 33 34 35 36 37 38 39 40 41 42 43 44 45 46 47 48 49 50
000
ASUS44 KMEG 302300
RWRTN
TENNESSEE HOURLY STATE WEATHER ROUNDUP
NATIONAL WEATHER SERVICE MEMPHIS TN
600 PM CDT THU JUL 30 2015

TNZ002-004-019-021-049-052-054-088>092-310000-
WEST TENNESSEE

CITY           SKY/WX    TMP DP  RH WIND       PRES   REMARKS
MEMPHIS INTL   MOSUNNY   88  62  41 NE14      30.05R
NWS MEMPHIS      N/A     87 N/A N/A MISG        N/A
JACKSON        SUNNY     89  59  36 N13       30.05S
DYERSBURG        N/A    N/A N/A N/A MISG        N/A
PARIS          SUNNY     82  63  51 N6        30.08S
LEXINGTON      SUNNY     82  63  51 N6        30.04F
$$

TNZ008-025-027-028-033-062-065-066-310000-
NORTH MIDDLE TENNESSEE

CITY           SKY/WX    TMP DP  RH WIND       PRES   REMARKS
NASHVILLE      SUNNY     86  61  42 N13G20    30.04F
CLARKSVILLE    SUNNY     84  61  45 N10       30.06F
CROSSVILLE     SUNNY     81  60  48 N9G18     30.07F
$$

TNZ061-075-076-078-094-096-097-310000-
SOUTH MIDDLE TENNESSEE

CITY           SKY/WX    TMP DP  RH WIND       PRES   REMARKS
FAYETTEVILLE   SUNNY     84  55  37 N10       30.02S
TULLAHOMA      SUNNY     82  61  47 N8        30.04F
WINCHESTER     SUNNY     84  64  51 N9        30.02F
MCMINNVILLE    SUNNY     84  68  58 N9        30.04S
COLUMBIA       SUNNY     86  64  48 N8        30.03S
SHELBYVILLE    SUNNY     86  63  45 N12       30.04S
$$

TNZ017-018-042-046-047-310000-
NORTHEAST TENNESSEE

CITY           SKY/WX    TMP DP  RH WIND       PRES   REMARKS
TRI CITIES     PTSUNNY   84  68  58 N5        29.99S
ELIZABETHTON   PTCLDY    81  68  65 NW8       29.99S
$$

TNZ012-013-036-069-073-074-310000-
CENTRAL EAST TENNESSEE

CITY           SKY/WX    TMP DP  RH WIND       PRES   REMARKS
KNOXVILLE      PTSUNNY   88  68  51 N10       29.97F HX  91
OAK RIDGE      SUNNY     89  65  44 VRB6      30.00S HX  91
GATLINBURG     CLEAR     86  70  58 NW8       29.97S HX  90
$$

TNZ083-085-099-310000-
SOUTHEAST TENNESSEE

CITY           SKY/WX    TMP DP  RH WIND       PRES   REMARKS
CHATTANOOGA    MOSUNNY   90  69  50 N16       29.96S HX  94
$$

SKY/WX REPORTED AS FAIR MEANS FEW OR NO CLOUDS BELOW
12 THOUSAND FEET.



USA.gov is the U.S. government's official web portal to all federal, state and local government web resources and services.